Year,Month,Day,Hour,Minute,Value (Times are PST for temperature in C)
2018,10,23,00,00,4.60
2018,10,23,00,01,4.60
2018,10,23,00,02,4.60
2018,10,23,00,03,4.60
2018,10,23,00,04,4.60
2018,10,23,00,05,4.60
2018,10,23,00,06,4.60
2018,10,23,00,07,4.50
2018,10,23,00,08,4.50
2018,10,23,00,09,4.50
2018,10,23,00,10,4.50
2018,10,23,00,11,4.50
2018,10,23,00,12,4.40
2018,10,23,00,13,4.40
2018,10,23,00,14,4.40
2018,10,23,00,15,4.40
2018,10,23,00,16,4.30
2018,10,23,00,17,4.30
2018,10,23,00,18,4.30
2018,10,23,00,19,4.30
2018,10,23,00,20,4.30
2018,10,23,00,21,4.30
2018,10,23,00,22,4.30
2018,10,23,00,23,4.20
2018,10,23,00,24,4.20
2018,10,23,00,25,4.20
2018,10,23,00,26,4.20
2018,10,23,00,27,4.20
2018,10,23,00,28,4.20
2018,10,23,00,29,4.10
2018,10,23,00,30,4.10
2018,10,23,00,31,4.10
2018,10,23,00,32,4.10
2018,10,23,00,33,4.10
2018,10,23,00,34,4.10
2018,10,23,00,35,4.10
2018,10,23,00,36,4.10
2018,10,23,00,37,4.00
2018,10,23,00,38,4.00
2018,10,23,00,39,4.00
2018,10,23,00,40,3.90
2018,10,23,00,41,3.90
2018,10,23,00,42,3.90
2018,10,23,00,43,3.90
2018,10,23,00,44,3.90
2018,10,23,00,45,3.90
2018,10,23,00,46,3.90
2018,10,23,00,47,3.90
2018,10,23,00,48,3.90
2018,10,23,00,49,3.80
2018,10,23,00,50,3.80
2018,10,23,00,51,3.80
2018,10,23,00,52,3.80
2018,10,23,00,53,3.80
2018,10,23,00,54,3.80
2018,10,23,00,55,3.80
2018,10,23,00,56,3.80
2018,10,23,00,57,3.80
2018,10,23,00,58,3.70
2018,10,23,00,59,3.70
2018,10,23,01,00,3.70
2018,10,23,01,01,3.70
2018,10,23,01,02,3.70
2018,10,23,01,03,3.70
2018,10,23,01,04,3.70
2018,10,23,01,05,3.70
2018,10,23,01,06,3.70
2018,10,23,01,07,3.70
2018,10,23,01,08,3.60
2018,10,23,01,09,3.60
2018,10,23,01,10,3.60
2018,10,23,01,11,3.60
2018,10,23,01,12,3.60
2018,10,23,01,13,3.60
2018,10,23,01,14,3.60
2018,10,23,01,15,3.60
2018,10,23,01,16,3.50
2018,10,23,01,17,3.50
2018,10,23,01,18,3.50
2018,10,23,01,19,3.50
2018,10,23,01,20,3.50
2018,10,23,01,21,3.50
2018,10,23,01,22,3.50
2018,10,23,01,23,3.50
2018,10,23,01,24,3.50
2018,10,23,01,25,3.40
2018,10,23,01,26,3.40
2018,10,23,01,27,3.40
2018,10,23,01,28,3.40
2018,10,23,01,29,3.40
2018,10,23,01,30,3.40
2018,10,23,01,31,3.40
2018,10,23,01,32,3.40
2018,10,23,01,33,3.30
2018,10,23,01,34,3.30
2018,10,23,01,35,3.30
2018,10,23,01,36,3.30
2018,10,23,01,37,3.30
2018,10,23,01,38,3.30
2018,10,23,01,39,3.30
2018,10,23,01,40,3.30
2018,10,23,01,41,3.30
2018,10,23,01,42,3.30
2018,10,23,01,43,3.30
2018,10,23,01,44,3.30
2018,10,23,01,45,3.30
2018,10,23,01,46,3.30
2018,10,23,01,47,3.30
2018,10,23,01,48,3.30
2018,10,23,01,49,3.30
2018,10,23,01,50,3.30
2018,10,23,01,51,3.30
2018,10,23,01,52,3.30
2018,10,23,01,53,3.20
2018,10,23,01,54,3.30
2018,10,23,01,55,3.20
2018,10,23,01,56,3.20
2018,10,23,01,57,3.20
2018,10,23,01,58,3.20
2018,10,23,01,59,3.20
2018,10,23,02,00,3.20
2018,10,23,02,01,3.20
2018,10,23,02,02,3.20
2018,10,23,02,03,3.20
2018,10,23,02,04,3.20
2018,10,23,02,05,3.20
2018,10,23,02,06,3.20
2018,10,23,02,07,3.10
2018,10,23,02,08,3.10
2018,10,23,02,09,3.10
2018,10,23,02,10,3.10
2018,10,23,02,11,3.10
2018,10,23,02,12,3.10
2018,10,23,02,13,3.10
2018,10,23,02,14,3.10
2018,10,23,02,15,3.10
2018,10,23,02,16,3.10
2018,10,23,02,17,3.10
2018,10,23,02,18,3.00
2018,10,23,02,19,3.00
2018,10,23,02,20,3.00
2018,10,23,02,21,3.00
2018,10,23,02,22,3.00
2018,10,23,02,23,3.00
2018,10,23,02,24,2.90
2018,10,23,02,25,2.90
2018,10,23,02,26,2.90
2018,10,23,02,27,2.90
2018,10,23,02,28,2.90
2018,10,23,02,29,2.90
2018,10,23,02,30,2.90
2018,10,23,02,31,2.90
2018,10,23,02,32,2.90
2018,10,23,02,33,2.90
2018,10,23,02,34,2.80
2018,10,23,02,35,2.80
2018,10,23,02,36,2.80
2018,10,23,02,37,2.80
2018,10,23,02,38,2.80
2018,10,23,02,39,2.80
2018,10,23,02,40,2.80
2018,10,23,02,41,2.80
2018,10,23,02,42,2.80
2018,10,23,02,43,2.80
2018,10,23,02,44,2.70
2018,10,23,02,45,2.70
2018,10,23,02,46,2.70
2018,10,23,02,47,2.70
2018,10,23,02,48,2.70
2018,10,23,02,49,2.70
2018,10,23,02,50,2.70
2018,10,23,02,51,2.70
2018,10,23,02,52,2.70
2018,10,23,02,53,2.70
2018,10,23,02,54,2.70
2018,10,23,02,55,2.70
2018,10,23,02,56,2.70
2018,10,23,02,57,2.70
2018,10,23,02,58,2.70
2018,10,23,02,59,2.70
2018,10,23,03,00,2.70
2018,10,23,03,01,2.70
2018,10,23,03,02,2.70
2018,10,23,03,03,2.70
2018,10,23,03,04,2.70
2018,10,23,03,05,2.70
2018,10,23,03,06,2.70
2018,10,23,03,07,2.70
2018,10,23,03,08,2.60
2018,10,23,03,09,2.60
2018,10,23,03,10,2.60
2018,10,23,03,11,2.60
2018,10,23,03,12,2.60
2018,10,23,03,13,2.60
2018,10,23,03,14,2.60
2018,10,23,03,15,2.60
2018,10,23,03,16,2.60
2018,10,23,03,17,2.50
2018,10,23,03,18,2.50
2018,10,23,03,19,2.50
2018,10,23,03,20,2.50
2018,10,23,03,21,2.50
2018,10,23,03,22,2.50
2018,10,23,03,23,2.40
2018,10,23,03,24,2.40
2018,10,23,03,25,2.40
2018,10,23,03,26,2.40
2018,10,23,03,27,2.40
2018,10,23,03,28,2.40
2018,10,23,03,29,2.40
2018,10,23,03,30,2.40
2018,10,23,03,31,2.40
2018,10,23,03,32,2.40
2018,10,23,03,33,2.40
2018,10,23,03,34,2.40
2018,10,23,03,35,2.40
2018,10,23,03,36,2.40
2018,10,23,03,37,2.40
2018,10,23,03,38,2.40
2018,10,23,03,39,2.40
2018,10,23,03,40,2.40
2018,10,23,03,41,2.40
2018,10,23,03,42,2.40
2018,10,23,03,43,2.40
2018,10,23,03,44,2.40
2018,10,23,03,45,2.40
2018,10,23,03,46,2.40
2018,10,23,03,47,2.40
2018,10,23,03,48,2.30
2018,10,23,03,49,2.30
2018,10,23,03,50,2.30
2018,10,23,03,51,2.30
2018,10,23,03,52,2.30
2018,10,23,03,53,2.30
2018,10,23,03,54,2.30
2018,10,23,03,55,2.30
2018,10,23,03,56,2.30
2018,10,23,03,57,2.30
2018,10,23,03,58,2.30
2018,10,23,03,59,2.30
2018,10,23,04,00,2.30
2018,10,23,04,01,2.30
2018,10,23,04,02,2.30
2018,10,23,04,03,2.30
2018,10,23,04,04,2.30
2018,10,23,04,05,2.30
2018,10,23,04,06,2.30
2018,10,23,04,07,2.30
2018,10,23,04,08,2.30
2018,10,23,04,09,2.30
2018,10,23,04,10,2.30
2018,10,23,04,11,2.30
2018,10,23,04,12,2.30
2018,10,23,04,13,2.20
2018,10,23,04,14,2.20
2018,10,23,04,15,2.20
2018,10,23,04,16,2.20
2018,10,23,04,17,2.20
2018,10,23,04,18,2.20
2018,10,23,04,19,2.20
2018,10,23,04,20,2.20
2018,10,23,04,21,2.20
2018,10,23,04,22,2.20
2018,10,23,04,23,2.20
2018,10,23,04,24,2.20
2018,10,23,04,25,2.20
2018,10,23,04,26,2.20
2018,10,23,04,27,2.20
2018,10,23,04,28,2.20
2018,10,23,04,29,2.20
2018,10,23,04,30,2.20
2018,10,23,04,31,2.20
2018,10,23,04,32,2.20
2018,10,23,04,33,2.20
2018,10,23,04,34,2.20
2018,10,23,04,35,2.20
2018,10,23,04,36,2.20
2018,10,23,04,37,2.20
2018,10,23,04,38,2.20
2018,10,23,04,39,2.20
2018,10,23,04,40,2.20
2018,10,23,04,41,2.20
2018,10,23,04,42,2.20
2018,10,23,04,43,2.20
2018,10,23,04,44,2.20
2018,10,23,04,45,2.20
2018,10,23,04,46,2.20
2018,10,23,04,47,2.20
2018,10,23,04,48,2.20
2018,10,23,04,49,2.20
2018,10,23,04,50,2.20
2018,10,23,04,51,2.20
2018,10,23,04,52,2.20
2018,10,23,04,53,2.20
2018,10,23,04,54,2.20
2018,10,23,04,55,2.20
2018,10,23,04,56,2.20
2018,10,23,04,57,2.20
2018,10,23,04,58,2.20
2018,10,23,04,59,2.20
2018,10,23,05,00,2.20
2018,10,23,05,01,2.20
2018,10,23,05,02,2.20
2018,10,23,05,03,2.20
2018,10,23,05,04,2.20
2018,10,23,05,05,2.20
2018,10,23,05,06,2.20
2018,10,23,05,07,2.20
2018,10,23,05,08,2.20
2018,10,23,05,09,2.20
2018,10,23,05,10,2.20
2018,10,23,05,11,2.10
2018,10,23,05,12,2.10
2018,10,23,05,13,2.20
2018,10,23,05,14,2.10
2018,10,23,05,15,2.10
2018,10,23,05,16,2.10
2018,10,23,05,17,2.10
2018,10,23,05,18,2.10
2018,10,23,05,19,2.10
2018,10,23,05,20,2.10
2018,10,23,05,21,2.10
2018,10,23,05,22,2.10
2018,10,23,05,23,2.10
2018,10,23,05,24,2.10
2018,10,23,05,25,2.10
2018,10,23,05,26,2.10
2018,10,23,05,27,2.10
2018,10,23,05,28,2.10
2018,10,23,05,29,2.10
2018,10,23,05,30,2.10
2018,10,23,05,31,2.10
2018,10,23,05,32,2.10
2018,10,23,05,33,2.10
2018,10,23,05,34,2.10
2018,10,23,05,35,2.10
2018,10,23,05,36,2.10
2018,10,23,05,37,2.10
2018,10,23,05,38,2.10
2018,10,23,05,39,2.10
2018,10,23,05,40,2.10
2018,10,23,05,41,2.20
2018,10,23,05,42,2.20
2018,10,23,05,43,2.20
2018,10,23,05,44,2.20
2018,10,23,05,45,2.20
2018,10,23,05,46,2.20
2018,10,23,05,47,2.20
2018,10,23,05,48,2.20
2018,10,23,05,49,2.20
2018,10,23,05,50,2.20
2018,10,23,05,51,2.20
2018,10,23,05,52,2.20
2018,10,23,05,53,2.20
2018,10,23,05,54,2.20
2018,10,23,05,55,2.20
2018,10,23,05,56,2.20
2018,10,23,05,57,2.20
2018,10,23,05,58,2.20
2018,10,23,05,59,2.20
2018,10,23,06,00,2.20
2018,10,23,06,01,2.20
2018,10,23,06,02,2.20
2018,10,23,06,03,2.20
2018,10,23,06,04,2.10
2018,10,23,06,05,2.20
2018,10,23,06,06,2.20
2018,10,23,06,07,2.20
2018,10,23,06,08,2.20
2018,10,23,06,09,2.20
2018,10,23,06,10,2.20
2018,10,23,06,11,2.20
2018,10,23,06,12,2.20
2018,10,23,06,13,2.20
2018,10,23,06,14,2.20
2018,10,23,06,15,2.20
2018,10,23,06,16,2.20
2018,10,23,06,17,2.20
2018,10,23,06,18,2.20
2018,10,23,06,19,2.20
2018,10,23,06,20,2.20
2018,10,23,06,21,2.20
2018,10,23,06,22,2.20
2018,10,23,06,23,2.20
2018,10,23,06,24,2.20
2018,10,23,06,25,2.20
2018,10,23,06,26,2.10
2018,10,23,06,27,2.10
2018,10,23,06,28,2.10
2018,10,23,06,29,2.10
2018,10,23,06,30,2.10
2018,10,23,06,31,2.10
2018,10,23,06,32,2.10
2018,10,23,06,33,2.10
2018,10,23,06,34,2.10
2018,10,23,06,35,2.10
2018,10,23,06,36,2.10
2018,10,23,06,37,2.10
2018,10,23,06,38,2.10
2018,10,23,06,39,2.10
2018,10,23,06,40,2.10
2018,10,23,06,41,2.10
2018,10,23,06,42,2.10
2018,10,23,06,43,2.10
2018,10,23,06,44,2.10
2018,10,23,06,45,2.10
2018,10,23,06,46,2.10
2018,10,23,06,47,2.10
2018,10,23,06,48,2.10
2018,10,23,06,49,2.10
2018,10,23,06,50,2.10
2018,10,23,06,51,2.20
2018,10,23,06,52,2.20
2018,10,23,06,53,2.20
2018,10,23,06,54,2.20
2018,10,23,06,55,2.20
2018,10,23,06,56,2.20
2018,10,23,06,57,2.20
2018,10,23,06,58,2.20
2018,10,23,06,59,2.20
2018,10,23,07,00,2.20
2018,10,23,07,01,2.20
2018,10,23,07,02,2.20
2018,10,23,07,03,2.20
2018,10,23,07,04,2.20
2018,10,23,07,05,2.20
2018,10,23,07,06,2.20
2018,10,23,07,07,2.20
2018,10,23,07,08,2.20
2018,10,23,07,09,2.20
2018,10,23,07,10,2.20
2018,10,23,07,11,2.20
2018,10,23,07,12,2.20
2018,10,23,07,13,2.30
2018,10,23,07,14,2.30
2018,10,23,07,15,2.30
2018,10,23,07,16,2.30
2018,10,23,07,17,2.30
2018,10,23,07,18,2.30
2018,10,23,07,19,2.30
2018,10,23,07,20,2.30
2018,10,23,07,21,2.30
2018,10,23,07,22,2.30
2018,10,23,07,23,2.30
2018,10,23,07,24,2.30
2018,10,23,07,25,2.30
2018,10,23,07,26,2.30
2018,10,23,07,27,2.30
2018,10,23,07,28,2.30
2018,10,23,07,29,2.30
2018,10,23,07,30,2.30
2018,10,23,07,31,2.30
2018,10,23,07,32,2.30
2018,10,23,07,33,2.30
2018,10,23,07,34,2.30
2018,10,23,07,35,2.30
2018,10,23,07,36,2.30
2018,10,23,07,37,2.30
2018,10,23,07,38,2.30
2018,10,23,07,39,2.30
2018,10,23,07,40,2.30
2018,10,23,07,41,2.30
2018,10,23,07,42,2.30
2018,10,23,07,43,2.30
2018,10,23,07,44,2.30
2018,10,23,07,45,2.30
2018,10,23,07,46,2.30
2018,10,23,07,47,2.30
2018,10,23,07,48,2.30
2018,10,23,07,49,2.30
2018,10,23,07,50,2.30
2018,10,23,07,51,2.30
2018,10,23,07,52,2.30
2018,10,23,07,53,2.30
2018,10,23,07,54,2.30
2018,10,23,07,55,2.30
2018,10,23,07,56,2.30
2018,10,23,07,57,2.30
2018,10,23,07,58,2.30
2018,10,23,07,59,2.30
2018,10,23,08,00,2.30
2018,10,23,08,01,2.30
2018,10,23,08,02,2.30
2018,10,23,08,03,2.40
2018,10,23,08,04,2.40
2018,10,23,08,05,2.40
2018,10,23,08,06,2.40
2018,10,23,08,07,2.40
2018,10,23,08,08,2.40
2018,10,23,08,09,2.40
2018,10,23,08,10,2.40
2018,10,23,08,11,2.40
2018,10,23,08,12,2.40
2018,10,23,08,13,2.40
2018,10,23,08,14,2.40
2018,10,23,08,15,2.40
2018,10,23,08,16,2.40
2018,10,23,08,17,2.40
2018,10,23,08,18,2.40
2018,10,23,08,19,2.40
2018,10,23,08,20,2.40
2018,10,23,08,21,2.40
2018,10,23,08,22,2.40
2018,10,23,08,23,2.40
2018,10,23,08,24,2.40
2018,10,23,08,25,2.50
2018,10,23,08,26,2.50
2018,10,23,08,27,2.50
2018,10,23,08,28,2.50
2018,10,23,08,29,2.50
2018,10,23,08,30,2.50
2018,10,23,08,31,2.50
2018,10,23,08,32,2.60
2018,10,23,08,33,2.50
2018,10,23,08,34,2.60
2018,10,23,08,35,2.60
2018,10,23,08,36,2.60
2018,10,23,08,37,2.60
2018,10,23,08,38,2.60
2018,10,23,08,39,2.60
2018,10,23,08,40,2.60
2018,10,23,08,41,2.70
2018,10,23,08,42,2.70
2018,10,23,08,43,2.70
2018,10,23,08,44,2.70
2018,10,23,08,45,2.70
2018,10,23,08,46,2.70
2018,10,23,08,47,2.70
2018,10,23,08,48,2.70
2018,10,23,08,49,2.80
2018,10,23,08,50,2.80
2018,10,23,08,51,2.80
2018,10,23,08,52,2.80
2018,10,23,08,53,2.80
2018,10,23,08,54,2.80
2018,10,23,08,55,2.80
2018,10,23,08,56,2.80
2018,10,23,08,57,2.90
2018,10,23,08,58,2.90
2018,10,23,08,59,2.90
2018,10,23,09,00,2.90
2018,10,23,09,01,2.90
2018,10,23,09,02,2.90
2018,10,23,09,03,2.90
2018,10,23,09,04,2.90
2018,10,23,09,05,2.90
2018,10,23,09,06,3.00
2018,10,23,09,07,3.00
2018,10,23,09,08,3.00
2018,10,23,09,09,3.00
2018,10,23,09,10,3.00
2018,10,23,09,11,3.10
2018,10,23,09,12,3.10
2018,10,23,09,13,3.10
2018,10,23,09,14,3.20
2018,10,23,09,15,3.20
2018,10,23,09,16,3.20
2018,10,23,09,17,3.30
2018,10,23,09,18,3.30
2018,10,23,09,19,3.30
2018,10,23,09,20,3.30
2018,10,23,09,21,3.30
2018,10,23,09,22,3.40
2018,10,23,09,23,3.40
2018,10,23,09,24,3.40
2018,10,23,09,25,3.50
2018,10,23,09,26,3.50
2018,10,23,09,27,3.60
2018,10,23,09,28,3.60
2018,10,23,09,29,3.70
2018,10,23,09,30,3.70
2018,10,23,09,31,3.70
2018,10,23,09,32,3.80
2018,10,23,09,33,3.80
2018,10,23,09,34,3.80
2018,10,23,09,35,3.90
2018,10,23,09,36,3.90
2018,10,23,09,37,4.00
2018,10,23,09,38,4.00
2018,10,23,09,39,4.10
2018,10,23,09,40,4.10
2018,10,23,09,41,4.30
2018,10,23,09,42,4.40
2018,10,23,09,43,4.50
2018,10,23,09,44,4.60
2018,10,23,09,45,4.60
2018,10,23,09,46,4.60
2018,10,23,09,47,4.60
2018,10,23,09,48,4.60
2018,10,23,09,49,4.50
2018,10,23,09,50,4.50
2018,10,23,09,51,4.60
2018,10,23,09,52,4.60
2018,10,23,09,53,4.60
2018,10,23,09,54,4.60
2018,10,23,09,55,4.70
2018,10,23,09,56,4.70
2018,10,23,09,57,4.70
2018,10,23,09,58,4.70
2018,10,23,09,59,4.80
2018,10,23,10,00,4.80
2018,10,23,10,01,4.90
2018,10,23,10,02,4.90
2018,10,23,10,03,5.00
2018,10,23,10,04,5.00
2018,10,23,10,05,5.10
2018,10,23,10,06,5.10
2018,10,23,10,07,5.10
2018,10,23,10,08,5.20
2018,10,23,10,09,5.20
2018,10,23,10,10,5.30
2018,10,23,10,11,5.30
2018,10,23,10,12,5.30
2018,10,23,10,13,5.40
2018,10,23,10,14,5.50
2018,10,23,10,15,5.50
2018,10,23,10,16,5.60
2018,10,23,10,17,5.70
2018,10,23,10,18,5.70
2018,10,23,10,19,5.70
2018,10,23,10,20,5.80
2018,10,23,10,21,5.80
2018,10,23,10,22,5.80
2018,10,23,10,23,5.80
2018,10,23,10,24,5.90
2018,10,23,10,25,5.90
2018,10,23,10,26,6.00
2018,10,23,10,27,6.00
2018,10,23,10,28,6.10
2018,10,23,10,29,6.10
2018,10,23,10,30,6.10
2018,10,23,10,31,6.20
2018,10,23,10,32,6.20
2018,10,23,10,33,6.20
2018,10,23,10,34,6.20
2018,10,23,10,35,6.20
2018,10,23,10,36,6.20
2018,10,23,10,37,6.20
2018,10,23,10,38,6.20
2018,10,23,10,39,6.30
2018,10,23,10,40,6.30
2018,10,23,10,41,6.30
2018,10,23,10,42,6.30
2018,10,23,10,43,6.30
2018,10,23,10,44,6.40
2018,10,23,10,45,6.40
2018,10,23,10,46,6.40
2018,10,23,10,47,6.40
2018,10,23,10,48,6.40
2018,10,23,10,49,6.50
2018,10,23,10,50,6.50
2018,10,23,10,51,6.50
2018,10,23,10,52,6.60
2018,10,23,10,53,6.60
2018,10,23,10,54,6.60
2018,10,23,10,55,6.70
2018,10,23,10,56,6.70
2018,10,23,10,57,6.70
2018,10,23,10,58,6.70
2018,10,23,10,59,6.80
2018,10,23,11,00,6.80
2018,10,23,11,01,6.80
2018,10,23,11,02,6.80
2018,10,23,11,03,6.80
2018,10,23,11,04,6.90
2018,10,23,11,05,6.90
2018,10,23,11,06,6.90
2018,10,23,11,07,6.90
2018,10,23,11,08,6.90
2018,10,23,11,09,7.00
2018,10,23,11,10,7.00
2018,10,23,11,11,7.10
2018,10,23,11,12,7.10
2018,10,23,11,13,7.20
2018,10,23,11,14,7.20
2018,10,23,11,15,7.20
2018,10,23,11,16,7.20
2018,10,23,11,17,7.20
2018,10,23,11,18,7.20
2018,10,23,11,19,7.20
2018,10,23,11,20,7.30
2018,10,23,11,21,7.30
2018,10,23,11,22,7.30
2018,10,23,11,23,7.30
2018,10,23,11,24,7.40
2018,10,23,11,25,7.40
2018,10,23,11,26,7.50
2018,10,23,11,27,7.50
2018,10,23,11,28,7.60
2018,10,23,11,29,7.60
2018,10,23,11,30,7.60
2018,10,23,11,31,7.70
2018,10,23,11,32,7.70
2018,10,23,11,33,7.70
2018,10,23,11,34,7.80
2018,10,23,11,35,7.80
2018,10,23,11,36,7.80
2018,10,23,11,37,7.80
2018,10,23,11,38,7.80
2018,10,23,11,39,7.90
2018,10,23,11,40,7.90
2018,10,23,11,41,7.90
2018,10,23,11,42,8.00
2018,10,23,11,43,8.00
2018,10,23,11,44,8.10
2018,10,23,11,45,8.20
2018,10,23,11,46,8.20
2018,10,23,11,47,8.20
2018,10,23,11,48,8.30
2018,10,23,11,49,8.30
2018,10,23,11,50,8.30
2018,10,23,11,51,8.40
2018,10,23,11,52,8.40
2018,10,23,11,53,8.40
2018,10,23,11,54,8.40
2018,10,23,11,55,8.40
2018,10,23,11,56,8.40
2018,10,23,11,57,8.40
2018,10,23,11,58,8.40
2018,10,23,11,59,8.40
2018,10,23,12,00,8.50
2018,10,23,12,01,8.50
2018,10,23,12,02,8.50
2018,10,23,12,03,8.60
2018,10,23,12,04,8.60
2018,10,23,12,05,8.60
2018,10,23,12,06,8.70
2018,10,23,12,07,8.70
2018,10,23,12,08,8.70
2018,10,23,12,09,8.80
2018,10,23,12,10,8.80
2018,10,23,12,11,8.80
2018,10,23,12,12,8.80
2018,10,23,12,13,8.80
2018,10,23,12,14,8.90
2018,10,23,12,15,8.90
2018,10,23,12,16,8.90
2018,10,23,12,17,8.90
2018,10,23,12,18,9.00
2018,10,23,12,19,9.00
2018,10,23,12,20,9.00
2018,10,23,12,21,9.00
2018,10,23,12,22,9.00
2018,10,23,12,23,9.10
2018,10,23,12,24,9.10
2018,10,23,12,25,9.10
2018,10,23,12,26,9.10
2018,10,23,12,27,9.20
2018,10,23,12,28,9.20
2018,10,23,12,29,9.20
2018,10,23,12,30,9.30
2018,10,23,12,31,9.30
2018,10,23,12,32,9.30
2018,10,23,12,33,9.30
2018,10,23,12,34,9.30
2018,10,23,12,35,9.30
2018,10,23,12,36,9.40
2018,10,23,12,37,9.40
2018,10,23,12,38,9.40
2018,10,23,12,39,9.30
2018,10,23,12,40,9.30
2018,10,23,12,41,9.30
2018,10,23,12,42,9.40
2018,10,23,12,43,9.40
2018,10,23,12,44,9.40
2018,10,23,12,45,9.40
2018,10,23,12,46,9.40
2018,10,23,12,47,9.40
2018,10,23,12,48,9.40
2018,10,23,12,49,9.40
2018,10,23,12,50,9.40
2018,10,23,12,51,9.40
2018,10,23,12,52,9.40
2018,10,23,12,53,9.40
2018,10,23,12,54,9.40
2018,10,23,12,55,9.40
2018,10,23,12,56,9.40
2018,10,23,12,57,9.40
2018,10,23,12,58,9.40
2018,10,23,12,59,9.40
2018,10,23,13,00,9.40
2018,10,23,13,01,9.40
2018,10,23,13,02,9.50
2018,10,23,13,03,9.50
2018,10,23,13,04,9.50
2018,10,23,13,05,9.60
2018,10,23,13,06,9.60
2018,10,23,13,07,9.60
2018,10,23,13,08,9.70
2018,10,23,13,09,9.70
2018,10,23,13,10,9.70
2018,10,23,13,11,9.70
2018,10,23,13,12,9.80
2018,10,23,13,13,9.80
2018,10,23,13,14,9.80
2018,10,23,13,15,9.80
2018,10,23,13,16,9.80
2018,10,23,13,17,9.80
2018,10,23,13,18,9.80
2018,10,23,13,19,9.80
2018,10,23,13,20,9.80
2018,10,23,13,21,9.80
2018,10,23,13,22,9.80
2018,10,23,13,23,9.70
2018,10,23,13,24,9.70
2018,10,23,13,25,9.70
2018,10,23,13,26,9.70
2018,10,23,13,27,9.70
2018,10,23,13,28,9.70
2018,10,23,13,29,9.80
2018,10,23,13,30,9.80
2018,10,23,13,31,9.80
2018,10,23,13,32,9.80
2018,10,23,13,33,9.80
2018,10,23,13,34,9.80
2018,10,23,13,35,9.80
2018,10,23,13,36,9.80
2018,10,23,13,37,9.90
2018,10,23,13,38,9.90
2018,10,23,13,39,9.90
2018,10,23,13,40,9.90
2018,10,23,13,41,9.90
2018,10,23,13,42,9.90
2018,10,23,13,43,9.90
2018,10,23,13,44,9.90
2018,10,23,13,45,10.00
2018,10,23,13,46,10.00
2018,10,23,13,47,10.00
2018,10,23,13,48,10.00
2018,10,23,13,49,10.10
2018,10,23,13,50,10.10
2018,10,23,13,51,10.10
2018,10,23,13,52,10.10
2018,10,23,13,53,10.10
2018,10,23,13,54,10.20
2018,10,23,13,55,10.20
2018,10,23,13,56,10.20
2018,10,23,13,57,10.20
2018,10,23,13,58,10.20
2018,10,23,13,59,10.20
2018,10,23,14,00,10.20
2018,10,23,14,01,10.20
2018,10,23,14,02,10.20
2018,10,23,14,03,10.20
2018,10,23,14,04,10.20
2018,10,23,14,05,10.20
2018,10,23,14,06,10.20
2018,10,23,14,07,10.20
2018,10,23,14,08,10.20
2018,10,23,14,09,10.20
2018,10,23,14,10,10.20
2018,10,23,14,11,10.20
2018,10,23,14,12,10.20
2018,10,23,14,13,10.20
2018,10,23,14,14,10.20
2018,10,23,14,15,10.20
2018,10,23,14,16,10.20
2018,10,23,14,17,10.20
2018,10,23,14,18,10.20
2018,10,23,14,19,10.30
2018,10,23,14,20,10.30
2018,10,23,14,21,10.30
2018,10,23,14,22,10.30
2018,10,23,14,23,10.30
2018,10,23,14,24,10.40
2018,10,23,14,25,10.40
2018,10,23,14,26,10.40
2018,10,23,14,27,10.40
2018,10,23,14,28,10.50
2018,10,23,14,29,10.50
2018,10,23,14,30,10.50
2018,10,23,14,31,10.50
2018,10,23,14,32,10.60
2018,10,23,14,33,10.60
2018,10,23,14,34,10.60
2018,10,23,14,35,10.70
2018,10,23,14,36,10.70
2018,10,23,14,37,10.70
2018,10,23,14,38,10.70
2018,10,23,14,39,10.80
2018,10,23,14,40,10.80
2018,10,23,14,41,10.80
2018,10,23,14,42,10.80
2018,10,23,14,43,10.80
2018,10,23,14,44,10.80
2018,10,23,14,45,10.80
2018,10,23,14,46,10.80
2018,10,23,14,47,10.80
2018,10,23,14,48,10.80
2018,10,23,14,49,10.90
2018,10,23,14,50,10.90
2018,10,23,14,51,10.90
2018,10,23,14,52,10.90
2018,10,23,14,53,10.90
2018,10,23,14,54,10.90
2018,10,23,14,55,10.90
2018,10,23,14,56,10.90
2018,10,23,14,57,10.90
2018,10,23,14,58,10.90
2018,10,23,14,59,10.90
2018,10,23,15,00,10.90
2018,10,23,15,01,10.90
2018,10,23,15,02,10.90
2018,10,23,15,03,10.90
2018,10,23,15,04,10.90
2018,10,23,15,05,10.90
2018,10,23,15,06,10.90
2018,10,23,15,07,10.90
2018,10,23,15,08,10.90
2018,10,23,15,09,10.90
2018,10,23,15,10,10.90
2018,10,23,15,11,10.90
2018,10,23,15,12,10.90
2018,10,23,15,13,11.00
2018,10,23,15,14,11.10
2018,10,23,15,15,11.10
2018,10,23,15,16,11.10
2018,10,23,15,17,11.10
2018,10,23,15,18,11.10
2018,10,23,15,19,11.10
2018,10,23,15,20,11.10
2018,10,23,15,21,11.10
2018,10,23,15,22,11.10
2018,10,23,15,23,11.00
2018,10,23,15,24,11.00
2018,10,23,15,25,10.90
2018,10,23,15,26,10.90
2018,10,23,15,27,10.90
2018,10,23,15,28,10.80
2018,10,23,15,29,10.80
2018,10,23,15,30,10.80
2018,10,23,15,31,10.80
2018,10,23,15,32,10.70
2018,10,23,15,33,10.70
2018,10,23,15,34,10.70
2018,10,23,15,35,10.70
2018,10,23,15,36,10.70
2018,10,23,15,37,10.70
2018,10,23,15,38,10.80
2018,10,23,15,39,10.80
2018,10,23,15,40,10.80
2018,10,23,15,41,10.80
2018,10,23,15,42,10.80
2018,10,23,15,43,10.80
2018,10,23,15,44,10.90
2018,10,23,15,45,10.90
2018,10,23,15,46,10.90
2018,10,23,15,47,10.90
2018,10,23,15,48,11.00
2018,10,23,15,49,11.00
2018,10,23,15,50,11.00
2018,10,23,15,51,11.00
2018,10,23,15,52,11.10
2018,10,23,15,53,11.10
2018,10,23,15,54,11.10
2018,10,23,15,55,11.10
2018,10,23,15,56,11.10
2018,10,23,15,57,11.10
2018,10,23,15,58,11.10
2018,10,23,15,59,11.10
2018,10,23,16,00,11.10
2018,10,23,16,01,11.10
2018,10,23,16,02,11.10
2018,10,23,16,03,11.10
2018,10,23,16,04,11.10
2018,10,23,16,05,11.10
2018,10,23,16,06,11.10
2018,10,23,16,07,11.10
2018,10,23,16,08,11.10
2018,10,23,16,09,11.10
2018,10,23,16,10,11.10
2018,10,23,16,11,11.10
2018,10,23,16,12,11.00
2018,10,23,16,13,11.00
2018,10,23,16,14,11.00
2018,10,23,16,15,11.00
2018,10,23,16,16,11.00
2018,10,23,16,17,11.00
2018,10,23,16,18,11.00
2018,10,23,16,19,11.00
2018,10,23,16,20,11.10
2018,10,23,16,21,11.10
2018,10,23,16,22,11.10
2018,10,23,16,23,11.10
2018,10,23,16,24,11.10
2018,10,23,16,25,11.10
2018,10,23,16,26,11.10
2018,10,23,16,27,11.10
2018,10,23,16,28,11.10
2018,10,23,16,29,11.10
2018,10,23,16,30,11.10
2018,10,23,16,31,11.10
2018,10,23,16,32,11.00
2018,10,23,16,33,11.00
2018,10,23,16,34,11.00
2018,10,23,16,35,11.10
2018,10,23,16,36,11.10
2018,10,23,16,37,11.00
2018,10,23,16,38,11.00
2018,10,23,16,39,10.90
2018,10,23,16,40,10.90
2018,10,23,16,41,10.90
2018,10,23,16,42,10.80
2018,10,23,16,43,10.80
2018,10,23,16,44,10.80
2018,10,23,16,45,10.80
2018,10,23,16,46,10.80
2018,10,23,16,47,10.70
2018,10,23,16,48,10.70
2018,10,23,16,49,10.70
2018,10,23,16,50,10.70
2018,10,23,16,51,10.70
2018,10,23,16,52,10.70
2018,10,23,16,53,10.70
2018,10,23,16,54,10.70
2018,10,23,16,55,10.70
2018,10,23,16,56,10.80
2018,10,23,16,57,10.80
2018,10,23,16,58,10.80
2018,10,23,16,59,10.80
2018,10,23,17,00,10.80
2018,10,23,17,01,10.80
2018,10,23,17,02,10.80
2018,10,23,17,03,10.80
2018,10,23,17,04,10.80
2018,10,23,17,05,10.80
2018,10,23,17,06,10.80
2018,10,23,17,07,10.80
2018,10,23,17,08,10.80
2018,10,23,17,09,10.80
2018,10,23,17,10,10.80
2018,10,23,17,11,10.80
2018,10,23,17,12,10.80
2018,10,23,17,13,10.80
2018,10,23,17,14,10.80
2018,10,23,17,15,10.80
2018,10,23,17,16,10.80
2018,10,23,17,17,10.80
2018,10,23,17,18,10.80
2018,10,23,17,19,10.80
2018,10,23,17,20,10.80
2018,10,23,17,21,10.80
2018,10,23,17,22,10.80
2018,10,23,17,23,10.80
2018,10,23,17,24,10.80
2018,10,23,17,25,10.80
2018,10,23,17,26,10.80
2018,10,23,17,27,10.80
2018,10,23,17,28,10.80
2018,10,23,17,29,10.80
2018,10,23,17,30,10.80
2018,10,23,17,31,10.80
2018,10,23,17,32,10.70
2018,10,23,17,33,10.70
2018,10,23,17,34,10.70
2018,10,23,17,35,10.70
2018,10,23,17,36,10.70
2018,10,23,17,37,10.70
2018,10,23,17,38,10.70
2018,10,23,17,39,10.70
2018,10,23,17,40,10.70
2018,10,23,17,41,10.70
2018,10,23,17,42,10.70
2018,10,23,17,43,10.70
2018,10,23,17,44,10.70
2018,10,23,17,45,10.70
2018,10,23,17,46,10.70
2018,10,23,17,47,10.70
2018,10,23,17,48,10.70
2018,10,23,17,49,10.70
2018,10,23,17,50,10.70
2018,10,23,17,51,10.70
2018,10,23,17,52,10.70
2018,10,23,17,53,10.70
2018,10,23,17,54,10.70
2018,10,23,17,55,10.60